Content
SEND FEEDBACK

Daily
Averages
Monthly
Summary
United States of America

YIGO, GUAM


Home > North America > United States > Guam
Elevation: 530 feet     Latitude: 13 32N     Longitude: 144 53E

WEATHER
 
SELECT A DAY
Number of Records: 213,786;   Date Range: 1/1/95 - 10/20/14
 
SHARE

PRINT THIS DATA

[ ← Previous Day ]
WEATHER ALMANAC - JUNE 16, 2014
[ Next Day → ]
[ °C ]   °F
Weather ElementAverageHighLow
Temperature84.3 °F89.4 °F (2:54 pm)80.1 °F (2:54 am)
Dewpoint75.7 °F77.9 °F (2:54 pm)72 °F (11:54 am)
Humidity75.9 %87 % (2:54 am)57 % (11:54 am)
Barometer29.81 in29.85 in (9:54 pm)29.77 in (3:54 pm)
Wind Speed3.3 mph9.2 mph (11:54 am)
Weather ElementAverage
Visibility10 mi
Wind DirectionENE (57.8 °)

Weather ElementTotal
Precipitation---
Cooling Degree Days19.8 (Base 65)
Growing Degree Days34.8 (Base 50)
Averaged from 23 records on June 16, 2014
WEATHER CONDITIONS BREAKOUT
WIND DIRECTION BREAKOUT
WEATHER BY HOUR - JUNE 16, 2014
[ °C ]   °F
Local TimeTemperatureDewpointHumidityBarometerVisibilityWind DirectionWind SpeedGust SpeedPrecipitationEventsConditions
1:54 AM81.0 °F75.9 °F85 %29.80 in10.0 miCalmClear
2:54 AM80.1 °F75.9 °F87 %29.79 in10.0 miCalmClear
3:54 AM80.1 °F75.0 °F85 %29.78 in10.0 miESE (110°)3.5 mphClear
4:54 AM80.1 °F75.0 °F85 %29.79 in10.0 miCalmClear
5:54 AM80.1 °F75.9 °F87 %29.81 in10.0 miEast (90°)3.5 mphClear
6:54 AM82.0 °F77.0 °F85 %29.82 in10.0 miEast (90°)3.5 mphClear
7:54 AM84.9 °F77.0 °F77 %29.83 in10.0 miSE (130°)4.6 mphClear
8:54 AM86.0 °F77.0 °F74 %29.84 in10.0 miVariable5.8 mphPartly Cloudy
9:54 AM86.0 °F75.0 °F70 %29.84 in10.0 miESE (120°)6.9 mphPartly Cloudy
10:54 AM88.0 °F73.9 °F63 %29.83 in10.0 miVariable5.8 mphPartly Cloudy
11:54 AM89.1 °F72.0 °F57 %29.82 in10.0 miSE (130°)9.2 mphPartly Cloudy
12:54 PM89.1 °F73.9 °F61 %29.81 in10.0 miVariable6.9 mphPartly Cloudy
1:54 PM89.1 °F75.0 °F63 %29.79 in10.0 miESE (110°)8.1 mphPartly Cloudy
2:54 PM89.4 °F77.9 °F69 %29.78 in10.0 miSouth (170°)5.8 mphPartly Cloudy
3:54 PM87.1 °F75.9 °F69 %29.77 in10.0 miCalmScattered Clouds
4:54 PM86.0 °F75.9 °F72 %29.77 in10.0 miESE (120°)5.8 mphScattered Clouds
5:54 PM84.9 °F75.9 °F74 %29.78 in10.0 miSSE (150°)3.5 mphPartly Cloudy
6:54 PM84.0 °F75.9 °F76 %29.79 in10.0 miESE (110°)3.5 mphPartly Cloudy
7:54 PM84.0 °F75.9 °F76 %29.81 in10.0 miCalmPartly Cloudy
8:54 PM82.9 °F75.9 °F79 %29.83 in10.0 miCalmPartly Cloudy
9:54 PM82.9 °F75.9 °F79 %29.85 in10.0 miCalmPartly Cloudy
10:54 PM82.0 °F77.0 °F85 %29.85 in10.0 miCalmPartly Cloudy
11:54 PM80.1 °F75.9 °F87 %29.85 in10.0 miCalmPartly Cloudy
Hourly data recorded from PGUM, located miles away from Yigo, Guam







STORIES FROM OUR PARTNERS